Regional Weather Roundup
Issued by NWS

Home | Current Version | Previous Version | Graphics & Text | Print | Product List | Glossary Off
Versions: 1 2 3 4 5 6 7 8 9 10 11 12 13 14 15 16 17 18 19 20 21 22 23 24 25 26 27 28 29 30 31 32 33 34 35 36 37 38 39 40 41 42 43 44 45 46 47 48 49 50

000
ASUS43 KTOP 260608
RWRKS

WEATHER ROUNDUP FOR KANSAS
NATIONAL WEATHER SERVICE GOODLAND KS
100 AM CDT TUE SEP 26 2017

NOTE:  "FAIR" INDICATES FEW OR NO CLOUDS BELOW 12,000 FEET WITH NO
SIGNIFICANT WEATHER AND/OR OBSTRUCTIONS TO VISIBILITY.

KSZ001>006-013>018-027>032-041>047-260700-
NORTHWEST KANSAS

CITY           SKY/WX    TMP DP  RH WIND       PRES   REMARKS
GOODLAND       CLOUDY    47  46  97 N8        30.14R
6HR MIN TEMP:  47; 6HR MAX TEMP:  49; 6HR PCP: TRACE;

HAYS           CLOUDY    52  50  93 N13       30.07R
HILL CITY      CLOUDY    52  50  93 N9        30.08S
6HR MIN TEMP:  52; 6HR MAX TEMP:  54; 6HR PCP: TRACE;

RUSSELL        CLOUDY    54  53  97 N12       30.04R
6HR MIN TEMP:  54; 6HR MAX TEMP:  57;

$$

KSZ061>065-074>080-084>089-260700-
SOUTHWEST KANSAS

CITY           SKY/WX    TMP DP  RH WIND       PRES   REMARKS
DODGE CITY     CLOUDY    53  52  96 N13       30.07S FOG
6HR MIN TEMP:  53; 6HR MAX TEMP:  56; 6HR PCP:  0.01;

ELKHART          N/A     50  52 100 N8          N/A
GARDEN CITY    CLOUDY    52  50  93 N14       30.08
6HR MIN TEMP:  51; 6HR MAX TEMP:  54;

GREAT BEND     LGT RAIN  55  54  96 N10       30.05R
LIBERAL        CLOUDY    53  52  96 N17       30.08S
PRATT          CLOUDY    56  55  95 N13       30.03S
6HR MIN TEMP:  56; 6HR MAX TEMP:  63; 6HR PCP:  0.10;

$$

KSZ066>073-081>083-090>101-260700-
SOUTHEAST KANSAS

CITY           SKY/WX    TMP DP  RH WIND       PRES   REMARKS
CHANUTE        CLOUDY    70  64  81 NE6       29.94F
6HR MIN TEMP:  69; 6HR MAX TEMP:  78; 6HR PCP:  0.01;

COFFEYVILLE    CLOUDY    70  66  87 N6        29.93S
6HR MIN TEMP:  70; 6HR MAX TEMP:  80; 6HR PCP: TRACE;

HUTCHINSON     CLOUDY    60  60 100 N12       29.99R FOG
6HR MIN TEMP:  60; 6HR MAX TEMP:  63; 6HR PCP:  0.15;

MEDICINE LODGE   N/A     62  60  93 NW14G20   30.00R
NEWTON         CLOUDY    63  63 100 N6        29.98S
PARSONS        CLOUDY    70  65  84 CALM      29.95R
6HR MIN TEMP:  69; 6HR MAX TEMP:  78; 6HR PCP: TRACE;

WICHITA INTL   CLOUDY    65  64  97 N3        29.97R
6HR MIN TEMP:  64; 6HR MAX TEMP:  65; 6HR PCP:  0.15;

WICHITA JABRA  MOCLDY    63  63 100 CALM      29.95S
6HR MIN TEMP:  63; 6HR MAX TEMP:  64; 6HR PCP:  0.07;

WICHITA MCCONL CLOUDY    64  62  92 CALM      29.95R
WINFIELD       MOCLDY    66  66 100 CALM      29.95S
6HR MIN TEMP:  65; 6HR MAX TEMP:  68; 6HR PCP:  0.58;

$$

KSZ007>012-019>026-033>040-048>060-102>105-260700-
NORTHEAST KANSAS

CITY           SKY/WX    TMP DP  RH WIND       PRES   REMARKS
CONCORDIA      LGT RAIN  56  56 100 NW10      30.02R
6HR MIN TEMP:  56; 6HR MAX TEMP:  60; 6HR PCP:  0.07;

EMPORIA        CLOUDY    65  64  97 SW5       29.96R
6HR MIN TEMP:  65; 6HR MAX TEMP:  67; 6HR PCP:  0.46;

LAWRENCE       CLOUDY    66  66 100 SE6       29.93F
6HR MIN TEMP:  66; 6HR MAX TEMP:  76; 6HR PCP:  0.23;

MANHATTAN      CLOUDY    66  65  96 CALM      29.96R
6HR MIN TEMP:  65; 6HR MAX TEMP:  66; 6HR PCP:  0.08;

MARYSVILLE     CLOUDY    63  61  94 NW5       29.98R
OLATHE IND     CLOUDY    66  64  93 N5        29.95S
6HR MIN TEMP:  66; 6HR MAX TEMP:  77; 6HR PCP: TRACE;

OLATHE EXE     CLOUDY    67  63  87 N5        29.94S
6HR MIN TEMP:  67; 6HR MAX TEMP:  77;

SALINA         CLOUDY    61  58  90 NW15      30.00R
6HR MIN TEMP:  61; 6HR MAX TEMP:  68; 6HR PCP:  0.03;

TOPEKA BILLARD LGT RAIN  67  67 100 S3        29.94S
6HR MIN TEMP:  66; 6HR MAX TEMP:  71; 6HR PCP:  0.55;

TOPEKA FORBES  LGT RAIN  67  67 100 SW3       29.95R
6HR MIN TEMP:  67; 6HR MAX TEMP:  70; 6HR PCP:  0.55;

$$




USA.gov is the U.S. government's official web portal to all federal, state and local government web resources and services.